When you browse on this site, cookies collect data to enhance your experience and personalize the content and advertising you see.
Visit our Privacy Policy to learn more. By continuing to use the site, you agree to this use of cookies and data.
  • In Portugal
  • List of Countries
  • For 7 days
  • Water Temperature
  • Satellite Maps
  • Weather Map
  • Weather Widgets
  • user-avatar
    Login

    Hourly Weather Wrony

    Today, 21 February, Thursday

    Time Temperature Precipitation Wind Pressure Humidity
    00:00 +2°C° 0 mm 2 mps 733 mmHg 85%
    01:00 +2°C° 0 mm 2 mps 733 mmHg 85%
    02:00 +2°C° 0 mm 2 mps 733 mmHg 85%
    03:00 +2°C° 0 mm 2 mps 733 mmHg 86%
    04:00 +1°C° 0 mm 2 mps 732 mmHg 87%
    05:00 0°C° 0 mm 3 mps 732 mmHg 87%
    06:00 0°C° 0 mm 3 mps 733 mmHg 88%
    07:00 +1°C° 0 mm 3 mps 733 mmHg 89%
    08:00 +2°C° 0 mm 3 mps 733 mmHg 85%
    09:00 +4°C° 0 mm 3 mps 733 mmHg 81%
    10:00 +5°C° 0 mm 4 mps 733 mmHg 77%
    11:00 +5°C° 0.2 mm 4 mps 733 mmHg 77%
    12:00 +5°C° 0.2 mm 4 mps 733 mmHg 77%
    13:00 +5°C° 0 mm 4 mps 732 mmHg 77%
    14:00 +5°C° 0.6 mm 4 mps 732 mmHg 79%
    15:00 +4°C° 0.6 mm 4 mps 732 mmHg 81%
    16:00 +4°C° 0.6 mm 4 mps 731 mmHg 83%
    17:00 +4°C° 0.1 mm 4 mps 732 mmHg 84%
    18:00 +4°C° 0.1 mm 4 mps 732 mmHg 85%
    19:00 +4°C° 0.1 mm 4 mps 732 mmHg 86%
    20:00 +4°C° 0.1 mm 4 mps 731 mmHg 88%
    21:00 +3°C° 0.1 mm 5 mps 731 mmHg 89%
    22:00 +3°C° 0.1 mm 5 mps 731 mmHg 90%
    23:00 +3°C° 0.8 mm 5 mps 731 mmHg 92%

    Tomorrow, 22 February, Friday

    Time Temperature Precipitation Wind Pressure Humidity
    00:00 +3°C° 0.8 mm 5 mps 731 mmHg 93%
    01:00 +3°C° 0.8 mm 5 mps 731 mmHg 94%
    02:00 +3°C° 0.9 mm 5 mps 731 mmHg 95%
    03:00 +3°C° 0.9 mm 5 mps 731 mmHg 96%
    04:00 +3°C° 0.9 mm 5 mps 731 mmHg 97%
    05:00 +2°C° 0.5 mm 5 mps 732 mmHg 95%
    06:00 +1°C° 0.5 mm 6 mps 733 mmHg 94%
    07:00 -1°C° 0.5 mm 6 mps 734 mmHg 92%
    08:00 -2°C° 0.1 mm 6 mps 735 mmHg 89%
    09:00 -3°C° 0.1 mm 6 mps 736 mmHg 86%
    10:00 -4°C° 0.1 mm 5 mps 738 mmHg 82%
    11:00 -2°C° 0 mm 5 mps 738 mmHg 75%
    12:00 -2°C° 0 mm 5 mps 739 mmHg 67%
    13:00 -1°C° 0 mm 5 mps 740 mmHg 59%
    14:00 -2°C° 0 mm 4 mps 740 mmHg 58%
    15:00 -2°C° 0 mm 4 mps 741 mmHg 57%
    16:00 -2°C° 0 mm 4 mps 741 mmHg 56%
    17:00 -2°C° 0 mm 3 mps 742 mmHg 58%
    18:00 -4°C° 0 mm 3 mps 743 mmHg 61%
    19:00 -4°C° 0 mm 2 mps 743 mmHg 64%
    20:00 -4°C° 0 mm 2 mps 744 mmHg 64%
    21:00 -5°C° 0 mm 2 mps 744 mmHg 63%
    22:00 -5°C° 0 mm 2 mps 745 mmHg 63%
    23:00 -5°C° 0 mm 2 mps 745 mmHg 62%

    Day after tomorrow, 23 February, Saturday

    Time Temperature Precipitation Wind Pressure Humidity
    00:00 -5°C° 0 mm 2 mps 745 mmHg 61%
    01:00 -5°C° 0 mm 2 mps 745 mmHg 61%
    02:00 -4°C° 0 mm 1 mps 745 mmHg 60%
    03:00 -4°C° 0 mm 1 mps 745 mmHg 60%
    04:00 -4°C° 0 mm 1 mps 745 mmHg 60%
    05:00 -4°C° 0 mm 1 mps 745 mmHg 59%
    06:00 -4°C° 0 mm 1 mps 745 mmHg 59%
    07:00 -5°C° 0 mm 0 mps 745 mmHg 58%
    08:00 -3°C° 0 mm 1 mps 745 mmHg 51%
    09:00 -2°C° 0 mm 1 mps 746 mmHg 43%
    10:00 -3°C° 0 mm 2 mps 746 mmHg 36%
    11:00 -2°C° 0 mm 2 mps 746 mmHg 34%
    12:00 -1°C° 0 mm 2 mps 745 mmHg 31%
    13:00 +1°C° 0 mm 2 mps 745 mmHg 29%
    14:00 +1°C° 0 mm 2 mps 745 mmHg 30%
    15:00 +2°C° 0 mm 1 mps 745 mmHg 32%
    16:00 +2°C° 0 mm 1 mps 744 mmHg 34%
    17:00 +1°C° 0 mm 1 mps 744 mmHg 38%
    18:00 0°C° 0 mm 1 mps 744 mmHg 42%
    19:00 -1°C° 0 mm 1 mps 744 mmHg 46%
    20:00 -1°C° 0 mm 1 mps 744 mmHg 45%
    21:00 -1°C° 0 mm 1 mps 744 mmHg 44%
    22:00 -1°C° 0 mm 1 mps 744 mmHg 43%
    23:00 -1°C° 0 mm 1 mps 744 mmHg 41%

    24 February, Sunday

    Time Temperature Precipitation Wind Pressure Humidity
    00:00 -1°C° 0 mm 1 mps 744 mmHg 39%
    01:00 -1°C° 0 mm 1 mps 743 mmHg 37%
    02:00 -1°C° 0 mm 1 mps 743 mmHg 37%
    03:00 -1°C° 0 mm 1 mps 743 mmHg 36%
    04:00 -1°C° 0 mm 1 mps 743 mmHg 35%
    05:00 -1°C° 0 mm 1 mps 743 mmHg 36%
    06:00 -1°C° 0 mm 1 mps 743 mmHg 36%
    07:00 -1°C° 0 mm 1 mps 743 mmHg 36%
    08:00 +1°C° 0 mm 1 mps 743 mmHg 35%
    09:00 +3°C° 0 mm 1 mps 743 mmHg 34%
    10:00 +5°C° 0 mm 1 mps 743 mmHg 33%
    11:00 +6°C° 0 mm 1 mps 743 mmHg 35%
    12:00 +6°C° 0 mm 2 mps 743 mmHg 37%
    13:00 +7°C° 0 mm 2 mps 743 mmHg 39%
    14:00 +6°C° 0 mm 2 mps 743 mmHg 44%
    15:00 +6°C° 0 mm 2 mps 742 mmHg 49%
    16:00 +6°C° 0 mm 2 mps 742 mmHg 54%
    17:00 +4°C° 0 mm 2 mps 742 mmHg 57%
    18:00 +3°C° 0 mm 2 mps 742 mmHg 60%
    19:00 +1°C° 0 mm 2 mps 742 mmHg 63%
    20:00 +1°C° 0 mm 2 mps 742 mmHg 63%
    21:00 +1°C° 0 mm 2 mps 742 mmHg 64%
    22:00 +1°C° 0 mm 2 mps 743 mmHg 64%
    23:00 +1°C° 0 mm 2 mps 743 mmHg 65%

    25 February, Monday

    Time Temperature Precipitation Wind Pressure Humidity
    00:00 +1°C° 0 mm 2 mps 743 mmHg 65%
    01:00 +2°C° 0 mm 1 mps 743 mmHg 65%
    02:00 +1°C° 0 mm 2 mps 743 mmHg 66%
    03:00 +1°C° 0 mm 2 mps 743 mmHg 67%
    04:00 +1°C° 0 mm 2 mps 743 mmHg 67%
    05:00 +1°C° 0 mm 2 mps 743 mmHg 68%
    06:00 +1°C° 0 mm 2 mps 743 mmHg 69%
    07:00 +2°C° 0 mm 1 mps 743 mmHg 71%
    08:00 +3°C° 0 mm 2 mps 743 mmHg 67%
    09:00 +5°C° 0 mm 2 mps 744 mmHg 63%
    10:00 +6°C° 0 mm 2 mps 744 mmHg 60%
    11:00 +8°C° 0 mm 2 mps 744 mmHg 58%
    12:00 +9°C° 0 mm 2 mps 743 mmHg 56%
    13:00 +10°C° 0 mm 2 mps 743 mmHg 54%
    14:00 +10°C° 0 mm 2 mps 743 mmHg 58%
    15:00 +9°C° 0 mm 2 mps 743 mmHg 61%
    16:00 +9°C° 0 mm 2 mps 742 mmHg 65%
    17:00 +7°C° 0 mm 2 mps 742 mmHg 68%
    18:00 +6°C° 0 mm 2 mps 742 mmHg 72%
    19:00 +5°C° 0 mm 2 mps 742 mmHg 75%
    20:00 +4°C° 0 mm 2 mps 742 mmHg 75%
    21:00 +4°C° 0 mm 2 mps 741 mmHg 74%
    22:00 +4°C° 0 mm 2 mps 741 mmHg 74%
    23:00 +4°C° 0 mm 2 mps 741 mmHg 74%

    26 February, Tuesday

    Time Temperature Precipitation Wind Pressure Humidity
    00:00 +4°C° 0 mm 2 mps 741 mmHg 75%
    01:00 +4°C° 0 mm 2 mps 741 mmHg 76%
    02:00 +3°C° 0 mm 2 mps 740 mmHg 77%
    03:00 +3°C° 0 mm 2 mps 740 mmHg 78%
    04:00 +3°C° 0 mm 2 mps 739 mmHg 79%
    05:00 +3°C° 0 mm 2 mps 739 mmHg 80%
    06:00 +2°C° 0 mm 3 mps 739 mmHg 81%
    07:00 +2°C° 0 mm 3 mps 738 mmHg 82%
    08:00 +4°C° 0 mm 3 mps 738 mmHg 76%
    09:00 +6°C° 0 mm 4 mps 738 mmHg 70%
    10:00 +7°C° 0 mm 4 mps 738 mmHg 64%
    11:00 +8°C° 0 mm 5 mps 738 mmHg 59%
    12:00 +9°C° 0 mm 5 mps 737 mmHg 53%
    13:00 +10°C° 0 mm 5 mps 737 mmHg 48%
    14:00 +10°C° 0 mm 5 mps 737 mmHg 53%
    15:00 +10°C° 0 mm 5 mps 736 mmHg 58%
    16:00 +9°C° 0 mm 5 mps 736 mmHg 64%
    17:00 +8°C° 0 mm 5 mps 736 mmHg 68%
    18:00 +7°C° 0 mm 5 mps 736 mmHg 72%
    19:00 +6°C° 0 mm 4 mps 736 mmHg 77%
    20:00 +6°C° 0 mm 4 mps 736 mmHg 79%
    21:00 +6°C° 0 mm 4 mps 736 mmHg 80%
    22:00 +6°C° 0 mm 4 mps 736 mmHg 82%
    23:00 +5°C° 0 mm 4 mps 736 mmHg 86%
    Show more